Kabul, Afghanistan

1:25 PM +0430 on July 24, 2017 (GMT +0430)
Kabul

Weather History for OAKB - May, 2014

Change the Weather History Date:

Monday, May 12, 2014

  Actual Average Record
Temperature  
Mean Temperature 65 °F -  
Max Temperature 71 °F 80 °F - ()
Min Temperature 59 °F 50 °F - ()
Growing Degree Days 15 (Base 50)    
Moisture  
Dew Point 23 °F    
Average Humidity 23    
Maximum Humidity 45    
Minimum Humidity 11    
Precipitation  
Precipitation 0.00 in 0.02 in - ()
Sea Level Pressure  
Sea Level Pressure 29.96 in    
Wind  
Wind Speed 11 mph ()    
Max Wind Speed 28 mph    
Max Gust Speed 53 mph    
Visibility 5.9 miles    
Events Thunderstorm    
T = Trace of Precipitation, MM = Missing Value Source: Averaged Metar Reports

Daily Weather History Graph

Daily Weather History Graph

Search for Another Location

Airport or City:

Trip Planner

Search our weather history database for the weather conditions in past years. The results will help you decide how hot, cold, wet, or windy it might be!

Date:

Astronomy

May. 12, 2014 Rise Set
Actual Time 4:53 AM +0430 6:46 PM +0430
Civil Twilight 4:25 AM +0430 7:14 PM +0430
Nautical Twilight 3:52 AM +0430 7:47 PM +0430
Astronomical Twilight 3:16 AM +0430 8:23 PM +0430
Moon 4:22 PM +0430 (5/12) 3:09 AM +0430 (5/12)
Length of Visible Light 14h 48m
Length of Day
13h 53m
Waxing Gibbous, 93% of the Moon is Illuminated
May 12
Waxing Gibbous
May 14
Full
May 21
Last Quarter
May 28
New
Jun 6
First Quarter

Hourly Weather History & Observations

Time (+0430) Temp. Dew Point Humidity Pressure Visibility Wind Dir Wind Speed Gust Speed Precip Events Conditions
12:20 AM 60.8 °F 39.2 °F 45% 29.98 in 6.2 mi NNW 9.2 mph - N/A   Scattered Clouds
1:20 AM 59.0 °F 37.4 °F 45% 29.98 in 6.2 mi North 8.1 mph - N/A   Scattered Clouds
2:20 AM 59.0 °F 37.4 °F 45% 29.98 in 6.2 mi NNW 12.7 mph - N/A Thunderstorm Scattered Clouds
3:20 AM 59.0 °F 37.4 °F 45% 29.98 in 6.2 mi NNW 5.8 mph - N/A   Scattered Clouds
4:20 AM 59.0 °F 32.0 °F 36% 29.98 in 6.2 mi NNW 5.8 mph - N/A   Scattered Clouds
5:20 AM 59.0 °F 28.4 °F 31% 29.98 in 6.2 mi North 11.5 mph - N/A   Scattered Clouds
6:20 AM 62.6 °F 28.4 °F 27% 30.01 in 6.2 mi NW 3.5 mph - N/A   Scattered Clouds
7:20 AM 64.4 °F 23.0 °F 21% 30.01 in - NNE 12.7 mph - N/A   Clear
8:20 AM 68.0 °F 23.0 °F 18% 30.01 in 5.0 mi West 8.1 mph - N/A   Partly Cloudy
9:20 AM 69.8 °F 14.0 °F 12% 30.01 in - North 13.8 mph - N/A   Clear
10:20 AM 69.8 °F 14.0 °F 12% 29.98 in - NNW 13.8 mph - N/A   Clear
11:20 AM 71.6 °F 15.8 °F 12% 29.98 in 6.2 mi North 12.7 mph - N/A   Partly Cloudy
12:20 PM 71.6 °F 17.6 °F 13% 29.95 in 6.2 mi NNW 19.6 mph - N/A   Partly Cloudy
1:20 PM 71.6 °F 15.8 °F 12% 29.92 in - NNW 20.7 mph - N/A   Clear
2:20 PM 71.6 °F 14.0 °F 11% 29.92 in - North 13.8 mph 39.1 mph N/A   Clear
3:20 PM 71.6 °F 15.8 °F 12% 29.89 in - NNE 24.2 mph 39.1 mph N/A   Clear
4:20 PM 68.0 °F 19.4 °F 16% 29.89 in - North 27.6 mph 52.9 mph N/A   Clear
5:20 PM 66.2 °F 19.4 °F 17% 29.89 in 5.0 mi North 25.3 mph 50.6 mph N/A   Partly Cloudy
6:20 PM 64.4 °F 19.4 °F 18% 29.92 in 5.0 mi North 16.1 mph 46.0 mph N/A   Partly Cloudy
7:20 PM 60.8 °F 23.0 °F 23% 29.95 in - ENE 23.0 mph 42.6 mph N/A   Clear
8:20 PM 60.8 °F 21.2 °F 22% 29.98 in - NNE 11.5 mph 24.2 mph N/A   Clear
8:32 PM 60.8 °F 17.6 °F 19% 29.98 in - NNE 18.4 mph 38.0 mph N/A   Clear
9:20 PM 60.8 °F 19.4 °F 20% 29.98 in - NNE 13.8 mph 27.6 mph N/A   Clear
10:20 PM 59.0 °F 17.6 °F 20% 29.98 in - North 10.4 mph 24.2 mph N/A   Clear
11:20 PM 59.0 °F 15.8 °F 19% 29.98 in - NNE 16.1 mph 28.8 mph N/A   Clear